ZS1DFR-1 Weather Reports


time (UTC)temp
F
wind
direction
speed
knots
gust
knots
rain 1hr
in
rain 24hr
in
rain mn
in
humidity
%
barometer
mb
20260505095333 65 315 0.0 6.1 0.00 0.00 0.00 76 1014.4
20260505093928 65 315 0.0 6.1 0.00 0.00 0.00 76 1014.4
20260505092333 62 0 0.0 0.0 0.00 0.00 0.00 88 1014.4
20260505090833 62 0 0.0 0.0 0.00 0.00 0.00 88 1014.4
20260505085333 61 0 0.0 0.0 0.00 0.00 0.00 99 1014.4
20260505083833 61 0 0.0 0.0 0.00 0.00 0.00 99 1014.4
20260505082333 57 0 0.0 0.0 0.00 0.00 0.00 99 1014.5
20260505080835 57 0 0.0 0.0 0.00 0.00 0.00 99 1014.5
20260505075333 56 0 0.0 0.0 0.00 0.00 0.00 99 1014.3
20260505073833 56 0 0.0 0.0 0.00 0.00 0.00 99 1014.3
20260505072333 54 0 0.0 0.0 0.00 0.00 0.00 99 1013.8
20260505070909 54 0 0.0 0.0 0.00 0.00 0.00 99 1013.8
20260505065333 55 0 0.0 0.0 0.00 0.00 0.00 99 1013.4
20260505063833 55 0 0.0 0.0 0.00 0.00 0.00 99 1013.4
20260505062333 52 0 0.0 0.0 0.00 0.00 0.00 99 1013.3
20260505060834 52 0 0.0 0.0 0.00 0.00 0.00 99 1013.3
20260505055333 52 0 0.0 0.0 0.00 0.00 0.00 99 1013.2
20260505053833 52 0 0.0 0.0 0.00 0.00 0.00 99 1013.2
20260505052333 51 0 0.0 0.0 0.00 0.00 0.00 99 1012.7
20260505050833 51 0 0.0 0.0 0.00 0.00 0.00 99 1012.7
20260505040833 51 0 0.0 0.0 0.00 0.00 0.00 99 1012.5
20260505035333 51 0 0.0 0.0 0.00 0.00 0.00 98 1012.1
20260505033833 51 0 0.0 0.0 0.00 0.00 0.00 98 1012.1
20260505032333 51 0 0.0 0.0 0.00 0.00 0.00 98 1012.2
20260505030833 51 0 0.0 0.0 0.00 0.00 0.00 98 1012.2
20260505025333 52 0 0.0 0.0 0.00 0.00 0.00 98 1012.1
20260505023833 52 0 0.0 0.0 0.00 0.00 0.00 98 1012.1
20260505022332 52 0 0.0 0.0 0.00 0.00 0.00 98 1011.9
20260505020832 52 0 0.0 0.0 0.00 0.00 0.00 98 1011.9
20260505015332 52 0 0.0 0.0 0.00 0.00 0.00 98 1012.1
20260505013833 52 0 0.0 0.0 0.00 0.00 0.00 98 1012.1
20260505012332 52 0 0.0 0.0 0.00 0.00 0.00 98 1012.4
20260505010832 52 0 0.0 0.0 0.00 0.00 0.00 98 1012.4
20260505005332 52 0 0.0 0.0 0.00 0.00 0.00 98 1012.6
20260505003832 52 0 0.0 0.0 0.00 0.00 0.00 98 1012.6
20260505002332 53 0 0.0 0.0 0.00 0.00 0.00 98 1012.7
20260505000832 53 0 0.0 0.0 0.00 0.00 0.00 98 1012.7
20260504235332 53 0 0.0 0.0 0.00 0.00 0.00 97 1012.6
20260504233832 53 0 0.0 0.0 0.00 0.00 0.00 97 1012.6
20260504232332 54 0 0.0 0.0 0.00 0.00 0.00 97 1012.6
20260504230832 54 0 0.0 0.0 0.00 0.00 0.00 97 1012.6